• En España
  • Lista de países
  • Para 7 días
  • Temperatura del agua
  • Mapa Satelital
  • El tiempo en el mapa
  • Informadores
  • user-avatar
    Iniciar sesión

    Tiempo cada hora Potosi

    Hoy, 22 Septiembre, Sábado

    Tiempo Temperatura Precipitaciones Viento Presión Humedad
    00:00 +8°C° 0 mm 2 mps 468 mmHg 62%
    01:00 +7°C° 0 mm 2 mps 468 mmHg 65%
    02:00 +8°C° 0 mm 1 mps 467 mmHg 68%
    03:00 +7°C° 0 mm 1 mps 467 mmHg 70%
    04:00 +7°C° 0 mm 1 mps 466 mmHg 71%
    05:00 +6°C° 0 mm 1 mps 466 mmHg 72%
    06:00 +7°C° 0 mm 1 mps 467 mmHg 65%
    07:00 +8°C° 0 mm 1 mps 468 mmHg 59%
    08:00 +9°C° 0 mm 1 mps 469 mmHg 52%
    09:00 +11°C° 0 mm 1 mps 470 mmHg 43%
    10:00 +13°C° 0 mm 2 mps 471 mmHg 34%
    11:00 +15°C° 0 mm 2 mps 472 mmHg 25%
    12:00 +16°C° 0 mm 3 mps 472 mmHg 23%
    13:00 +17°C° 0 mm 4 mps 471 mmHg 21%
    14:00 +18°C° 0 mm 4 mps 471 mmHg 19%
    15:00 +15°C° 0.8 mm 4 mps 470 mmHg 26%
    16:00 +13°C° 0.8 mm 4 mps 468 mmHg 33%
    17:00 +12°C° 0.8 mm 4 mps 467 mmHg 40%
    18:00 +11°C° 2 mm 4 mps 467 mmHg 45%
    19:00 +10°C° 2 mm 4 mps 467 mmHg 50%
    20:00 +8°C° 2 mm 4 mps 467 mmHg 56%
    21:00 +9°C° 0.1 mm 3 mps 467 mmHg 54%
    22:00 +9°C° 0.1 mm 3 mps 468 mmHg 51%
    23:00 +9°C° 0.1 mm 3 mps 468 mmHg 49%

    Mañana, 23 Septiembre, Domingo

    Tiempo Temperatura Precipitaciones Viento Presión Humedad
    00:00 +9°C° 0 mm 2 mps 468 mmHg 50%
    01:00 +8°C° 0 mm 2 mps 468 mmHg 51%
    02:00 +8°C° 0 mm 2 mps 467 mmHg 52%
    03:00 +9°C° 0.1 mm 1 mps 467 mmHg 55%
    04:00 +8°C° 0.1 mm 1 mps 466 mmHg 58%
    05:00 +8°C° 0.1 mm 1 mps 466 mmHg 61%
    06:00 +8°C° 0 mm 1 mps 467 mmHg 57%
    07:00 +9°C° 0 mm 1 mps 468 mmHg 53%
    08:00 +10°C° 0 mm 1 mps 468 mmHg 49%
    09:00 +11°C° 0 mm 1 mps 469 mmHg 42%
    10:00 +13°C° 0 mm 1 mps 470 mmHg 35%
    11:00 +14°C° 0 mm 2 mps 471 mmHg 29%
    12:00 +14°C° 0 mm 3 mps 471 mmHg 27%
    13:00 +15°C° 0 mm 4 mps 470 mmHg 26%
    14:00 +15°C° 0 mm 5 mps 470 mmHg 24%
    15:00 +14°C° 0.6 mm 5 mps 469 mmHg 29%
    16:00 +13°C° 0.6 mm 4 mps 468 mmHg 34%
    17:00 +12°C° 0.6 mm 4 mps 467 mmHg 39%
    18:00 +10°C° 2.3 mm 4 mps 467 mmHg 48%
    19:00 +9°C° 2.3 mm 3 mps 467 mmHg 56%
    20:00 +8°C° 2.3 mm 2 mps 466 mmHg 65%
    21:00 +8°C° 0.5 mm 2 mps 467 mmHg 63%
    22:00 +8°C° 0.5 mm 2 mps 468 mmHg 61%
    23:00 +8°C° 0.5 mm 2 mps 468 mmHg 59%

    Pasado mañana, 24 Septiembre, Lunes

    Tiempo Temperatura Precipitaciones Viento Presión Humedad
    00:00 +8°C° 0.5 mm 2 mps 468 mmHg 61%
    01:00 +7°C° 0.5 mm 2 mps 468 mmHg 63%
    02:00 +8°C° 0.5 mm 1 mps 467 mmHg 66%
    03:00 +8°C° 0.4 mm 1 mps 467 mmHg 66%
    04:00 +8°C° 0.4 mm 1 mps 467 mmHg 67%
    05:00 +8°C° 0.4 mm 1 mps 467 mmHg 68%
    06:00 +8°C° 0.1 mm 1 mps 467 mmHg 65%
    07:00 +8°C° 0.1 mm 1 mps 468 mmHg 63%
    08:00 +9°C° 0.1 mm 1 mps 468 mmHg 61%
    09:00 +9°C° 0.1 mm 2 mps 469 mmHg 54%
    10:00 +10°C° 0.1 mm 2 mps 470 mmHg 47%
    11:00 +11°C° 0.1 mm 3 mps 470 mmHg 40%
    12:00 +12°C° 0.1 mm 4 mps 470 mmHg 38%
    13:00 +13°C° 0.1 mm 5 mps 470 mmHg 37%
    14:00 +13°C° 0.1 mm 6 mps 470 mmHg 35%
    15:00 +11°C° 0.7 mm 6 mps 469 mmHg 41%
    16:00 +10°C° 0.7 mm 6 mps 468 mmHg 46%
    17:00 +9°C° 0.7 mm 6 mps 467 mmHg 52%
    18:00 +8°C° 1.4 mm 5 mps 467 mmHg 56%
    19:00 +8°C° 1.4 mm 4 mps 467 mmHg 61%
    20:00 +7°C° 1.4 mm 4 mps 467 mmHg 65%
    21:00 +8°C° 0.6 mm 3 mps 467 mmHg 65%
    22:00 +7°C° 0.6 mm 3 mps 467 mmHg 65%
    23:00 +7°C° 0.6 mm 3 mps 468 mmHg 66%

    25 Septiembre, Martes

    Tiempo Temperatura Precipitaciones Viento Presión Humedad
    00:00 +7°C° 0.3 mm 2 mps 467 mmHg 63%
    01:00 +7°C° 0.3 mm 2 mps 467 mmHg 60%
    02:00 +7°C° 0.3 mm 2 mps 467 mmHg 57%
    03:00 +7°C° 0 mm 2 mps 466 mmHg 58%
    04:00 +6°C° 0 mm 2 mps 466 mmHg 59%
    05:00 +6°C° 0 mm 2 mps 466 mmHg 60%
    06:00 +6°C° 0 mm 2 mps 466 mmHg 58%
    07:00 +7°C° 0 mm 2 mps 467 mmHg 55%
    08:00 +7°C° 0 mm 2 mps 468 mmHg 53%
    09:00 +9°C° 0 mm 2 mps 469 mmHg 45%
    10:00 +10°C° 0 mm 3 mps 470 mmHg 37%
    11:00 +12°C° 0 mm 3 mps 470 mmHg 29%
    12:00 +13°C° 0 mm 3 mps 470 mmHg 26%
    13:00 +14°C° 0 mm 4 mps 470 mmHg 22%
    14:00 +14°C° 0 mm 4 mps 470 mmHg 18%
    15:00 +14°C° 0 mm 5 mps 470 mmHg 19%
    16:00 +14°C° 0 mm 5 mps 470 mmHg 19%
    17:00 +14°C° 0 mm 5 mps 469 mmHg 19%
    18:00 +13°C° 0.2 mm 5 mps 469 mmHg 25%
    19:00 +11°C° 0.2 mm 4 mps 468 mmHg 30%
    20:00 +10°C° 0.2 mm 4 mps 468 mmHg 35%
    21:00 +9°C° 0 mm 3 mps 468 mmHg 41%
    22:00 +8°C° 0 mm 3 mps 467 mmHg 46%
    23:00 +7°C° 0 mm 2 mps 467 mmHg 52%

    26 Septiembre, Miércoles

    Tiempo Temperatura Precipitaciones Viento Presión Humedad
    00:00 +7°C° 0 mm 2 mps 467 mmHg 55%
    01:00 +6°C° 0 mm 2 mps 466 mmHg 57%
    02:00 +6°C° 0 mm 2 mps 466 mmHg 60%
    03:00 +6°C° 0 mm 1 mps 465 mmHg 58%
    04:00 +6°C° 0 mm 1 mps 465 mmHg 56%
    05:00 +6°C° 0 mm 1 mps 465 mmHg 54%
    06:00 +7°C° 0 mm 1 mps 466 mmHg 45%
    07:00 +8°C° 0 mm 1 mps 467 mmHg 36%
    08:00 +9°C° 0 mm 1 mps 468 mmHg 28%
    09:00 +9°C° 0 mm 2 mps 469 mmHg 21%
    10:00 +12°C° 0 mm 2 mps 470 mmHg 15%
    11:00 +13°C° 0 mm 2 mps 471 mmHg 9%
    12:00 +13°C° 0 mm 3 mps 471 mmHg 8%
    13:00 +14°C° 0 mm 3 mps 470 mmHg 7%
    14:00 +16°C° 0 mm 3 mps 470 mmHg 6%
    15:00 +16°C° 0 mm 3 mps 470 mmHg 7%
    16:00 +15°C° 0 mm 4 mps 470 mmHg 8%
    17:00 +15°C° 0 mm 4 mps 470 mmHg 8%
    18:00 +13°C° 0.1 mm 4 mps 469 mmHg 17%
    19:00 +12°C° 0.1 mm 5 mps 469 mmHg 26%
    20:00 +9°C° 0.1 mm 5 mps 468 mmHg 35%
    21:00 +8°C° 0.1 mm 4 mps 468 mmHg 42%
    22:00 +8°C° 0.1 mm 3 mps 468 mmHg 49%
    23:00 +7°C° 0.1 mm 3 mps 468 mmHg 57%

    27 Septiembre, Jueves

    Tiempo Temperatura Precipitaciones Viento Presión Humedad
    00:00 +7°C° 0 mm 2 mps 467 mmHg 59%
    01:00 +7°C° 0 mm 2 mps 467 mmHg 61%
    02:00 +7°C° 0 mm 1 mps 466 mmHg 63%
    03:00 +7°C° 0 mm 1 mps 466 mmHg 63%
    04:00 +7°C° 0 mm 1 mps 466 mmHg 62%
    05:00 +6°C° 0 mm 1 mps 466 mmHg 62%
    06:00 +7°C° 0 mm 1 mps 467 mmHg 55%
    07:00 +8°C° 0 mm 1 mps 468 mmHg 48%
    08:00 +9°C° 0 mm 1 mps 469 mmHg 41%
    09:00 +11°C° 0 mm 1 mps 470 mmHg 34%
    10:00 +12°C° 0 mm 1 mps 470 mmHg 26%
    11:00 +14°C° 0 mm 1 mps 471 mmHg 19%
    12:00 +14°C° 0 mm 2 mps 471 mmHg 17%
    13:00 +15°C° 0 mm 2 mps 471 mmHg 16%
    14:00 +16°C° 0 mm 3 mps 471 mmHg 14%
    15:00 +15°C° 0 mm 4 mps 470 mmHg 19%
    16:00 +14°C° 0 mm 5 mps 470 mmHg 23%
    17:00 +14°C° 0 mm 6 mps 469 mmHg 27%
    18:00 +11°C° 0.8 mm 6 mps 469 mmHg 37%
    19:00 +10°C° 0.8 mm 5 mps 468 mmHg 47%
    20:00 +8°C° 0.8 mm 5 mps 468 mmHg 56%
    21:00 +8°C° 0.5 mm 4 mps 468 mmHg 58%
    22:00 +7°C° 0.5 mm 4 mps 468 mmHg 59%
    23:00 +8°C° 0.5 mm 3 mps 468 mmHg 60%
    Mostrar más